Waarnemingen

Advertentie
Mijn weer
Lerwick, Groot Brittannië (3005): temperatuur & dauwpunt: 30.06.2020 21:00:00 - 06.07.2020 21:00:00 (BST)Lerwick, Groot Brittannië (3005): temperatuur -20cm & temperatuur -100cm: 30.06.2020 21:00:00 - 06.07.2020 21:00:00 (BST)Lerwick, Groot Brittannië (3005): windsnelheid & windstoten: 30.06.2020 21:00:00 - 06.07.2020 21:00:00 (BST)Lerwick, Groot Brittannië (3005): windrichting: 30.06.2020 21:00:00 - 06.07.2020 21:00:00 (BST)Lerwick, Groot Brittannië (3005): luchtdruk: 30.06.2020 21:00:00 - 06.07.2020 21:00:00 (BST)Lerwick, Groot Brittannië (3005): zicht: 30.06.2020 21:00:00 - 06.07.2020 21:00:00 (BST)Lerwick, Groot Brittannië (3005): Zonneschijnduur: 30.06.2020 21:00:00 - 06.07.2020 21:00:00 (BST)Lerwick, Groot Brittannië (3005): neerslag: 30.06.2020 21:00:00 - 06.07.2020 21:00:00 (BST)
Datum & Tijd tt [°C] td [°C] tt -20cm [°C] tt -100cm [°C] ff [km/u] ff [kn] fx [km/u] fx [kn] dd ppp [hPa] vv [km] sd [min] rr [mm]
06.07.2020 21:00:00 7,9 5,7 - - 35 19 48 26 WNW 1008,5 2,1 0 0,4
06.07.2020 20:00:00 9,1 6,2 - - 26 14 50 27 NW 1008,2 35 12 0,0
06.07.2020 19:00:00 9,6 6,3 - - 34 18 52 28 WNW 1007,8 75 18 0,0
06.07.2020 18:00:00 8,6 6,8 - - 34 18 50 27 WNW 1007,6 50 6 0,8
06.07.2020 17:00:00 8,7 7,6 - - 29 16 - - W 1007,5 12 0 2,8
06.07.2020 16:00:00 8,4 7,5 - - 29 16 48 26 WNW 1007,9 1,7 0 2,4
06.07.2020 15:00:00 9,6 8,5 - - 34 18 50 27 W 1008,3 28 0 0,0
06.07.2020 14:00:00 9,7 5,2 - - 37 20 55 30 WNW 1008,6 45 30 0,0
06.07.2020 13:00:00 10,6 5,0 - - 39 21 54 29 WNW 1008,3 55 30 0,0
06.07.2020 12:00:00 10,1 5,5 - - 29 16 52 28 NW 1007,9 45 30 0,0
06.07.2020 11:00:00 9,8 5,3 - - 31 17 52 28 NNW 1007,2 50 12 0,0
06.07.2020 10:00:00 8,6 5,1 13,2 11,0 31 17 52 28 NNW 1006,6 40 18 0,0
06.07.2020 09:00:00 9,0 6,1 - - 26 14 52 28 NNW 1005,8 35 12 0,0
06.07.2020 08:00:00 9,4 6,6 - - 29 16 54 29 NNW 1004,9 40 24 0,2
06.07.2020 07:00:00 9,3 6,5 - - 29 16 46 25 NNW 1003,7 30 0 0,0
06.07.2020 06:00:00 9,4 6,0 - - 29 16 54 29 NNW 1002,7 30 0 0,0
06.07.2020 05:00:00 9,3 6,7 - - 37 20 54 29 NNW 1001,9 29 0 0,0
06.07.2020 04:00:00 9,1 7,0 - - 35 19 52 28 N 1000,6 35 0 0,0
06.07.2020 03:00:00 10,0 8,1 - - 34 18 50 27 N 999,4 25 0 0,0
06.07.2020 02:00:00 10,4 8,7 - - 29 16 - - N 998,2 25 0 0,0
06.07.2020 01:00:00 10,7 9,4 - - 28 15 - - N 997,0 40 - 0,0
06.07.2020 00:00:00 10,6 9,4 - - 28 15 - - N 995,8 25 0 0,8
05.07.2020 23:00:00 10,5 9,3 - - 28 15 - - N 994,6 40 0 0,0
05.07.2020 22:00:00 10,8 9,7 - - 24 13 - - NW 993,7 30 0 0,0
05.07.2020 21:00:00 10,1 8,8 - - 29 16 - - WNW 993,2 50 0 0,0
05.07.2020 20:00:00 9,9 8,3 - - 21 11 - - NW 992,8 35 0 0,4
05.07.2020 19:00:00 10,7 9,7 - - 24 13 - - WNW 991,9 19 0 0,2
05.07.2020 18:00:00 10,3 8,8 - - 28 15 - - WNW 991,9 25 0 0,4
05.07.2020 17:00:00 10,2 9,0 - - 29 16 - - WNW 991,5 8 0 0,4
05.07.2020 16:00:00 10,7 8,8 - - 28 15 - - WNW 991,3 21 0 0,4
05.07.2020 15:00:00 10,5 9,4 - - 18 10 - - NW 990,9 25 0 0,0
05.07.2020 14:00:00 11,2 9,6 - - 26 14 - - WNW 990,4 45 0 0,6
05.07.2020 13:00:00 10,7 9,4 - - 22 12 - - NW 990,1 27 0 1,2
05.07.2020 12:00:00 10,8 9,2 - - 21 11 - - NW 989,9 8 0 0,2
05.07.2020 11:00:00 10,8 9,3 - - 18 10 - - NW 989,7 26 0 0,4
05.07.2020 10:00:00 10,8 9,8 13,2 11,0 13 7 - - NW 989,6 18 0 0,0
05.07.2020 09:00:00 10,7 10,1 - - 13 7 - - NNW 989,5 27 0 1,0
05.07.2020 08:00:00 10,6 10,0 - - 9 5 - - N 989,5 20 0 0,2
05.07.2020 07:00:00 10,2 9,8 - - 5 3 - - N 989,7 30 0 0,4
05.07.2020 06:00:00 9,9 9,7 - - 5 3 - - NO 990,0 15 0 0,4
05.07.2020 05:00:00 9,5 9,4 - - 5 3 - - NNO 990,6 20 0 0,4
05.07.2020 04:00:00 9,6 9,4 - - 9 5 - - N 991,6 24 0 0,6
05.07.2020 03:00:00 9,7 9,5 - - 9 5 - - N 992,5 12 0 2,2
05.07.2020 02:00:00 9,6 9,4 - - 8 4 - - NO 993,7 2,2 0 1,4
05.07.2020 01:00:00 9,4 9,1 - - 2 1 - - ZW 995,1 4,5 - 0,0
05.07.2020 00:00:00 9,7 9,3 - - 9 5 - - ZZW 996,4 40 0 0,0
04.07.2020 23:00:00 10,1 9,7 - - 13 7 - - ZZW 997,0 5 0 0,2
04.07.2020 22:00:00 10,1 9,4 - - 5 3 - - ZW 997,9 50 0 0,0
04.07.2020 21:00:00 10,0 9,3 - - 9 5 - - ZW 998,5 50 0 0,0
04.07.2020 20:00:00 11,0 9,2 - - 13 7 - - ZW 999,0 65 0 0,0
04.07.2020 19:00:00 11,1 9,4 - - 16 9 - - ZW 999,6 45 0 0,0
04.07.2020 18:00:00 12,0 8,5 - - 15 8 - - WZW 1000,0 70 0 0,0
04.07.2020 17:00:00 12,7 8,1 - - 21 11 - - WZW 1000,3 70 0 0,0
04.07.2020 16:00:00 12,2 8,6 - - 15 8 - - WZW 1000,7 50 0 0,0
04.07.2020 15:00:00 11,7 10,0 - - 18 10 - - ZW 1001,1 60 0 0,2
04.07.2020 14:00:00 11,3 10,1 - - 21 11 - - ZZW 1001,4 75 0 0,0
04.07.2020 13:00:00 12,0 10,6 - - 21 11 - - Z 1001,4 75 0 0,0
04.07.2020 12:00:00 11,8 10,7 - - 15 8 - - Z 1001,7 75 0 0,0
04.07.2020 11:00:00 11,0 10,6 - - 11 6 - - OZO 1001,6 45 0 0,2
04.07.2020 10:00:00 10,4 9,8 13,4 11,0 18 10 - - ZO 1001,5 50 0 0,0
04.07.2020 09:00:00 10,4 9,6 - - 15 8 - - ZO 1001,8 55 0 0,0
04.07.2020 08:00:00 9,9 9,5 - - 15 8 - - ZO 1002,0 20 0 0,6
04.07.2020 07:00:00 10,3 9,8 - - 16 9 - - Z 1002,0 5 0 0,0
04.07.2020 06:00:00 10,7 8,8 - - 16 9 - - OZO 1001,9 9 0 0,0
04.07.2020 05:00:00 10,8 8,8 - - 16 9 - - OZO 1002,2 60 0 0,0
04.07.2020 04:00:00 10,6 8,5 - - 15 8 - - O 1002,0 65 0 0,0
04.07.2020 03:00:00 10,6 8,2 - - 15 8 - - O 1002,0 65 0 0,0
04.07.2020 02:00:00 10,5 7,8 - - 15 8 - - ONO 1002,3 75 0 0,0
04.07.2020 01:00:00 10,5 7,7 - - 16 9 - - O 1002,3 75 - 0,0
04.07.2020 00:00:00 10,4 7,3 - - 18 10 - - O 1002,3 75 0 0,0
03.07.2020 23:00:00 10,3 7,3 - - 21 11 - - O 1002,3 75 0 0,0
03.07.2020 22:00:00 10,5 7,4 - - 18 10 - - O 1002,4 75 0 0,0
03.07.2020 21:00:00 10,6 6,9 - - 16 9 - - O 1002,5 75 0 0,0
03.07.2020 20:00:00 10,7 7,1 - - 15 8 - - O 1002,9 75 0 0,0
03.07.2020 19:00:00 10,8 7,0 - - 15 8 - - OZO 1002,9 75 0 0,0
03.07.2020 18:00:00 11,1 7,2 - - 15 8 - - ZO 1002,9 75 0 0,0
03.07.2020 17:00:00 11,8 7,7 - - 15 8 - - OZO 1003,0 75 6 0,0
03.07.2020 16:00:00 11,4 7,6 - - 15 8 - - ZO 1003,3 75 24 0,0
03.07.2020 15:00:00 12,2 8,3 - - 13 7 - - ZO 1003,5 14 18 0,0
03.07.2020 14:00:00 11,1 7,8 - - 13 7 - - ZO 1003,8 75 0 0,0
03.07.2020 13:00:00 11,0 8,1 - - 13 7 - - ZZO 1003,8 75 6 0,0
03.07.2020 12:00:00 11,2 8,3 - - 15 8 - - ZO 1003,9 75 0 0,0
03.07.2020 11:00:00 11,5 7,8 - - 5 3 - - ZO 1003,9 75 0 0,0
03.07.2020 10:00:00 10,4 6,7 13,2 11,0 5 3 - - WNW 1004,0 75 0 0,0
03.07.2020 09:00:00 9,9 6,9 - - 4 2 - - WNW 1004,3 75 0 0,0
03.07.2020 08:00:00 9,1 7,1 - - 5 3 - - W 1004,5 75 0 0,0
03.07.2020 07:00:00 9,1 7,3 - - 13 7 - - NW 1004,7 75 0 0,0
03.07.2020 06:00:00 8,5 6,9 - - 16 9 - - WNW 1004,6 75 0 0,0
03.07.2020 05:00:00 8,0 7,2 - - 15 8 - - W 1005,0 45 0 0,0
03.07.2020 04:00:00 7,6 6,9 - - 11 6 - - W 1005,3 35 0 0,0
03.07.2020 03:00:00 8,0 6,1 - - 9 5 - - W 1005,7 50 0 0,0
03.07.2020 02:00:00 8,2 5,9 - - 9 5 - - WNW 1005,9 50 0 0,0
03.07.2020 01:00:00 8,1 5,8 - - 13 7 - - WNW 1006,2 55 - 0,0
03.07.2020 00:00:00 8,1 6,4 - - 11 6 - - WNW 1006,2 50 0 0,0
02.07.2020 23:00:00 8,2 7,3 - - 13 7 - - WNW 1006,3 45 0 0,2
02.07.2020 22:00:00 7,8 6,6 - - 22 12 48 26 W 1006,2 11 0 1,4
02.07.2020 21:00:00 8,2 6,7 - - 34 18 57 31 W 1006,4 5 0 1,4
02.07.2020 20:00:00 9,1 7,4 - - 39 21 55 30 W 1006,0 30 0 0,2
02.07.2020 19:00:00 8,4 7,2 - - 41 22 61 33 W 1006,5 8 0 1,2
02.07.2020 18:00:00 8,7 7,7 - - 31 17 59 32 W 1006,5 5 6 0,4
02.07.2020 17:00:00 10,6 7,0 - - 44 24 63 34 W 1006,5 45 6 0,0
02.07.2020 16:00:00 10,1 8,4 - - 37 20 52 28 W 1006,7 30 18 0,2
02.07.2020 15:00:00 11,4 6,7 - - 37 20 50 27 W 1006,8 24 54 0,0
02.07.2020 14:00:00 11,9 7,9 - - 31 17 - - W 1006,9 75 42 0,0
02.07.2020 13:00:00 11,0 7,4 - - 31 17 - - W 1007,0 35 30 0,0
02.07.2020 12:00:00 10,5 6,0 - - 31 17 - - W 1007,0 75 42 0,0
02.07.2020 11:00:00 10,2 5,5 - - 28 15 - - W 1006,9 75 42 0,0
02.07.2020 10:00:00 9,9 5,3 13,7 11,0 26 14 - - WNW 1006,8 75 48 0,2
02.07.2020 09:00:00 7,5 5,2 - - 24 13 - - NW 1006,7 20 18 0,2
02.07.2020 08:00:00 7,7 4,5 - - 26 14 - - WNW 1006,6 75 0 0,0
02.07.2020 07:00:00 7,8 4,3 - - 21 11 - - NW 1006,4 75 6 0,0
02.07.2020 06:00:00 7,0 4,7 - - 16 9 - - NW 1006,2 75 18 0,0
02.07.2020 05:00:00 6,6 4,2 - - 16 9 - - NW 1006,4 75 6 0,0
02.07.2020 04:00:00 5,7 4,5 - - 8 4 - - NW 1006,7 75 0 0,0
02.07.2020 03:00:00 6,1 3,9 - - 16 9 - - NW 1006,7 75 0 0,0
02.07.2020 02:00:00 5,8 4,2 - - 13 7 - - NW 1006,9 75 0 0,0
02.07.2020 01:00:00 6,5 4,2 - - 15 8 - - WNW 1006,8 75 - 0,0
02.07.2020 00:00:00 6,7 4,3 - - 11 6 - - NNW 1007,1 75 0 0,0
01.07.2020 23:00:00 7,0 4,1 - - 15 8 - - NW 1007,0 75 0 0,0
01.07.2020 22:00:00 7,8 4,9 - - 9 5 - - NW 1006,7 75 6 0,0
01.07.2020 21:00:00 8,5 4,9 - - 18 10 - - N 1006,4 75 6 0,0
01.07.2020 20:00:00 9,1 5,5 - - 16 9 - - NNW 1006,3 75 18 0,0
01.07.2020 19:00:00 9,4 5,7 - - 22 12 - - N 1006,1 75 24 0,0
01.07.2020 18:00:00 9,6 5,7 - - 24 13 - - N 1006,1 75 6 0,0
01.07.2020 17:00:00 9,8 6,5 - - 13 7 - - NO 1006,0 35 6 0,0
01.07.2020 16:00:00 10,3 6,6 - - 16 9 - - NNO 1005,8 29 18 0,6
01.07.2020 15:00:00 8,6 6,9 - - 13 7 - - NNO 1005,7 2,1 0 2,6
01.07.2020 14:00:00 9,5 6,6 - - 24 13 - - NNO 1005,4 3,7 24 0,2
01.07.2020 13:00:00 10,5 6,6 - - 26 14 - - NO 1004,9 55 18 0,2
01.07.2020 12:00:00 10,6 5,6 - - 29 16 - - NNO 1004,6 75 36 0,0
01.07.2020 11:00:00 11,5 6,5 - - 28 15 - - NNO 1004,2 75 30 0,0
01.07.2020 10:00:00 11,0 6,5 14,2 10,9 26 14 - - NNO 1004,0 45 54 0,0
01.07.2020 09:00:00 10,6 6,1 - - 28 15 - - NNO 1003,9 75 42 0,0
01.07.2020 08:00:00 9,7 6,0 - - 28 15 - - N 1003,6 45 54 0,0
01.07.2020 07:00:00 8,8 6,5 - - 21 11 - - N 1003,5 40 6 0,0
01.07.2020 06:00:00 8,8 6,6 - - 21 11 - - N 1003,2 35 12 0,0
01.07.2020 05:00:00 7,5 5,3 - - 22 12 - - N 1003,3 45 0 0,0
01.07.2020 04:00:00 6,9 5,1 - - 22 12 - - N 1003,1 35 0 0,0
01.07.2020 03:00:00 9,4 5,9 - - 29 16 - - NNO 1003,0 30 0 0,0
01.07.2020 02:00:00 9,5 5,6 - - 31 17 - - NNO 1002,8 35 0 0,0
01.07.2020 01:00:00 9,3 6,2 - - 31 17 48 26 NNO 1002,5 25 - 0,0
01.07.2020 00:00:00 10,1 7,1 - - 35 19 52 28 NO 1002,1 24 0 0,0
30.06.2020 23:00:00 10,0 7,8 - - 35 19 52 28 NO 1001,7 22 0 0,2
30.06.2020 22:00:00 9,6 9,2 - - 41 22 65 35 NO 1001,2 8 0 0,2
30.06.2020 21:00:00 10,0 9,6 - - 44 24 65 35 NO 999,8 2,7 0 0,6

tt = temperatuur
td = dauwpunt
tt -20cm = temperatuur -20cm
tt -100cm = temperatuur -100cm
ff = windsnelheid
fx = windstoten
dd = windrichting
ppp = luchtdruk
vv = zicht
sd = Zonneschijnduur
rr = neerslag

Weerstations in de omgeving